Crane Lake, MN

5:41 AM CDT on April 23, 2018 (GMT -0500)
Crane Lake

Weather History for KCDD - October, 2013

Change the Weather History Date:

Wednesday, October 2, 2013

  Actual Average Record
Temperature  
Mean Temperature 47 °F -  
Max Temperature 62 °F 55 °F 78 °F (2005)
Min Temperature 32 °F 36 °F 24 °F (2015)
Degree Days  
Heating Degree Days 18    
Moisture  
Dew Point 38 °F    
Average Humidity 70    
Maximum Humidity 100    
Minimum Humidity 39    
Precipitation  
Precipitation 0.00 in - - ()
Sea Level Pressure  
Sea Level Pressure 29.99 in    
Wind  
Wind Speed 2 mph (WSW)    
Max Wind Speed 13 mph    
Max Gust Speed 18 mph    
Visibility 10 miles    
Events Rain    
Averages and records for this station are not official NWS values.
T = Trace of Precipitation, MM = Missing Value Source: NWS Daily Summary

Daily Weather History Graph

Daily Weather History Graph

Search for Another Location

Airport or City:

Astronomy

Oct. 02, 2013 Rise Set
Actual Time 7:11 AM CDT 6:46 PM CDT
Civil Twilight 6:39 AM CDT 7:17 PM CDT
Nautical Twilight 6:03 AM CDT 7:53 PM CDT
Astronomical Twilight 5:26 AM CDT 8:30 PM CDT
Moon 4:35 AM CDT (10/2) 5:28 PM CDT (10/2)
Length of Visible Light 12h 37m
Length of Day
11h 35m
Waning Crescent, 6% of the Moon is Illuminated
Oct 2
Waning Crescent
Oct 4
New
Oct 11
First Quarter
Oct 18
Full
Oct 26
Last Quarter

Hourly Weather History & Observations

Time (CDT) Temp. Windchill Dew Point Humidity Pressure Visibility Wind Dir Wind Speed Gust Speed Precip Events Conditions
12:13 AM 51.8 °F - 33.8 °F 50% 29.87 in 10.0 mi Calm Calm - N/A   Clear
12:33 AM 48.2 °F - 33.8 °F 58% 29.87 in 10.0 mi SW 3.5 mph - N/A   Clear
12:53 AM 48.2 °F - 33.8 °F 58% 29.88 in 10.0 mi SW 3.5 mph - N/A   Clear
1:13 AM 48.2 °F - 35.6 °F 62% 29.89 in 10.0 mi WSW 3.5 mph - N/A   Clear
1:33 AM 48.2 °F - 33.8 °F 58% 29.90 in 10.0 mi Calm Calm - N/A   Clear
1:53 AM 46.4 °F - 33.8 °F 62% 29.90 in 10.0 mi Calm Calm - N/A   Clear
2:13 AM 42.8 °F - 32.0 °F 66% 29.91 in 10.0 mi Calm Calm - N/A   Clear
2:33 AM 37.4 °F - 30.2 °F 75% 29.91 in 10.0 mi Calm Calm - N/A   Clear
2:53 AM 37.4 °F - 28.4 °F 70% 29.92 in 10.0 mi Calm Calm - N/A   Clear
3:13 AM 37.4 °F 34.9 °F 33.8 °F 87% 29.91 in 10.0 mi South 3.5 mph - N/A   Clear
3:33 AM 37.4 °F 33.8 °F 35.6 °F 93% 29.92 in 10.0 mi South 4.6 mph - N/A   Clear
3:53 AM 39.2 °F 37.0 °F 35.6 °F 87% 29.93 in 10.0 mi South 3.5 mph - N/A   Clear
4:13 AM 35.6 °F 32.8 °F 33.8 °F 93% 29.93 in 10.0 mi South 3.5 mph - N/A   Clear
4:33 AM 35.6 °F - 33.8 °F 93% 29.94 in 10.0 mi Calm Calm - N/A   Clear
4:53 AM 35.6 °F 32.8 °F 32.0 °F 87% 29.94 in 10.0 mi South 3.5 mph - N/A   Clear
5:13 AM 37.4 °F - 35.6 °F 93% 29.94 in 10.0 mi Calm Calm - N/A   Clear
5:33 AM 35.6 °F - 33.8 °F 93% 29.94 in 10.0 mi Calm Calm - N/A   Clear
5:53 AM 35.6 °F - 33.8 °F 93% 29.94 in 10.0 mi Calm Calm - N/A   Clear
6:13 AM 33.8 °F - 30.2 °F 87% 29.95 in 10.0 mi Calm Calm - N/A   Clear
6:33 AM 33.8 °F - 30.2 °F 87% 29.95 in 10.0 mi Calm Calm - N/A   Clear
6:53 AM 33.8 °F - 30.2 °F 87% 29.95 in 10.0 mi Calm Calm - N/A   Clear
7:13 AM 32.0 °F - 30.2 °F 93% 29.96 in 10.0 mi Calm Calm - N/A   Clear
7:33 AM 32.0 °F - 30.2 °F 93% 29.96 in 10.0 mi Calm Calm - N/A   Clear
8:16 AM 33.8 °F - 32.0 °F 93% 29.98 in 10.0 mi Calm Calm - N/A   Clear
8:33 AM 35.6 °F - 33.8 °F 93% 29.98 in 10.0 mi Calm Calm - N/A   Clear
8:53 AM 37.4 °F - 35.6 °F 93% 29.98 in 10.0 mi Calm Calm - N/A   Clear
9:13 AM 42.8 °F - 42.8 °F 100% 29.98 in 10.0 mi Calm Calm - N/A   Clear
9:33 AM 51.8 °F - 48.2 °F 88% 30.00 in 10.0 mi South 3.5 mph - N/A   Clear
9:53 AM 57.2 °F - 46.4 °F 67% 29.99 in 10.0 mi WSW 4.6 mph - N/A   Clear
10:13 AM 60.8 °F - 48.2 °F 63% 29.99 in 10.0 mi SW 6.9 mph - N/A   Clear
10:33 AM 62.6 °F - 39.2 °F 42% 30.00 in 10.0 mi WSW 5.8 mph - N/A   Clear
10:53 AM 62.6 °F - 39.2 °F 42% 30.00 in 10.0 mi Calm Calm - N/A   Clear
11:13 AM 62.6 °F - 39.2 °F 42% 30.01 in 10.0 mi SW 5.8 mph - N/A   Clear
11:33 AM 62.6 °F - 39.2 °F 42% 30.01 in 10.0 mi WSW 3.5 mph - N/A   Clear
11:53 AM 62.6 °F - 37.4 °F 39% 30.01 in 10.0 mi SW 4.6 mph - N/A   Scattered Clouds
12:13 PM 62.6 °F - 37.4 °F 39% 30.02 in 10.0 mi Calm Calm - N/A   Clear
12:33 PM 62.6 °F - 37.4 °F 39% 30.02 in 10.0 mi Calm Calm - N/A   Scattered Clouds
12:53 PM 62.6 °F - 39.2 °F 42% 30.02 in 10.0 mi Calm Calm - N/A   Scattered Clouds
1:13 PM 62.6 °F - 39.2 °F 42% 30.03 in 10.0 mi Calm Calm - N/A   Scattered Clouds
1:33 PM 62.6 °F - 39.2 °F 42% 30.02 in 10.0 mi WSW 3.5 mph - N/A   Scattered Clouds
1:53 PM 62.6 °F - 39.2 °F 42% 30.02 in 10.0 mi NW 3.5 mph - N/A   Scattered Clouds
2:13 PM 62.6 °F - 37.4 °F 39% 30.02 in 10.0 mi NNW 8.1 mph - N/A   Clear
2:33 PM 62.6 °F - 39.2 °F 42% 30.01 in 10.0 mi NW 12.7 mph 18.4 mph N/A   Clear
2:53 PM 62.6 °F - 39.2 °F 42% 30.02 in 10.0 mi NNW 11.5 mph 18.4 mph N/A   Clear
3:13 PM 62.6 °F - 39.2 °F 42% 30.01 in 10.0 mi NW 9.2 mph 17.3 mph N/A   Clear
3:33 PM 62.6 °F - 41.0 °F 45% 30.01 in 10.0 mi NNW 9.2 mph - N/A   Scattered Clouds
3:53 PM 60.8 °F - 41.0 °F 48% 30.02 in 10.0 mi NNW 6.9 mph - N/A   Scattered Clouds
4:13 PM 59.0 °F - 39.2 °F 48% 30.02 in 10.0 mi NNW 6.9 mph - N/A   Mostly Cloudy
4:33 PM 57.2 °F - 39.2 °F 51% 30.03 in 10.0 mi NNW 3.5 mph - N/A   Mostly Cloudy
4:53 PM 55.4 °F - 41.0 °F 58% 30.03 in 10.0 mi Calm Calm - N/A   Mostly Cloudy
5:13 PM 55.4 °F - 41.0 °F 58% 30.04 in 10.0 mi Calm Calm - N/A   Mostly Cloudy
5:33 PM 53.6 °F - 41.0 °F 62% 30.03 in 10.0 mi Calm Calm - N/A   Mostly Cloudy
5:53 PM 53.6 °F - 39.2 °F 58% 30.03 in 10.0 mi Calm Calm - N/A   Light Drizzle
6:13 PM 51.8 °F - 39.2 °F 62% 30.02 in 10.0 mi Calm Calm - N/A Rain Light Rain
6:33 PM 51.8 °F - 44.6 °F 76% 30.02 in 10.0 mi Calm Calm - N/A   Mostly Cloudy
6:53 PM 50.0 °F - 44.6 °F 82% 30.03 in 10.0 mi Calm Calm - N/A   Overcast
7:13 PM 50.0 °F - 44.6 °F 82% 30.03 in 10.0 mi Calm Calm - N/A   Overcast
7:33 PM 48.2 °F - 44.6 °F 87% 30.03 in 10.0 mi Calm Calm - N/A   Overcast
7:53 PM 48.2 °F - 44.6 °F 87% 30.03 in 10.0 mi SSE 3.5 mph - N/A   Overcast
8:13 PM 50.0 °F - 44.6 °F 82% 30.03 in 10.0 mi Calm Calm - N/A   Overcast
8:33 PM 48.2 °F - 44.6 °F 87% 30.03 in 10.0 mi Calm Calm - N/A   Overcast
8:53 PM 48.2 °F - 42.8 °F 82% 30.03 in 10.0 mi Calm Calm - N/A   Mostly Cloudy
9:13 PM 48.2 °F - 42.8 °F 82% 30.03 in 10.0 mi Calm Calm - N/A   Overcast
9:33 PM 46.4 °F - 42.8 °F 87% 30.02 in 10.0 mi Calm Calm - N/A   Overcast
9:53 PM 46.4 °F - 41.0 °F 81% 30.02 in 10.0 mi Calm Calm - N/A   Overcast
10:13 PM 44.6 °F - 39.2 °F 81% 30.03 in 10.0 mi Calm Calm - N/A   Overcast
10:33 PM 42.8 °F - 39.2 °F 87% 30.02 in 10.0 mi Calm Calm - N/A   Scattered Clouds
10:53 PM 42.8 °F - 39.2 °F 87% 30.03 in 10.0 mi Calm Calm - N/A   Mostly Cloudy
11:13 PM 42.8 °F - 37.4 °F 81% 30.03 in 10.0 mi Calm Calm - N/A   Mostly Cloudy
11:33 PM 39.2 °F - 37.4 °F 93% 30.03 in 10.0 mi Calm Calm - N/A   Clear
11:53 PM 39.2 °F - 35.6 °F 87% 30.02 in 10.0 mi Calm Calm - N/A   Clear